Simultaneous Nadir Overpasses (SNOs) Predictions

Prediction of SNOs between GOES-15 and TERRA Satellite Orbit:

Table of predicted SNOs for the next 14.0 days since TLE Epoch: 2/9/2014
Index Date Time (GOES-15) GOES-15 Lat,Lon TERRA Lat,Lon Distance(km) Time Diff (sec)
1 02/09/2014 07:21:57 -0.07,-135.39 0.38,-133.42 224.67 80
2 02/09/2014 19:45:53 0.07,-135.42 0.72,-138.58 358.61 80
3 02/11/2014 19:33:43 0.07,-135.42 0.10,-135.63 23.72 80
4 02/13/2014 19:18:53 0.07,-135.41 -0.53,-132.68 311.02 80
5 02/14/2014 07:42:56 -0.08,-135.38 -0.61,-137.87 282.79 80
6 02/16/2014 07:28:06 -0.07,-135.37 0.05,-134.92 51.54 80
7 02/18/2014 07:15:56 -0.07,-135.35 0.66,-131.97 385.26 80
8 02/18/2014 19:37:10 0.08,-135.37 0.48,-137.12 198.71 80
9 02/20/2014 19:27:39 0.07,-135.35 -0.16,-134.16 134.29 80
10 02/21/2014 07:49:03 -0.08,-135.31 -0.96,-139.35 459.85 80
11 02/22/2014 19:15:28 0.07,-135.31 -0.81,-131.21 466.39 80




NCC Satellite Simultaneous Nadir Overpasses (SNOs) Prediction Service
